Preview of NWS' New Version of Forecast
This preview is not operational and should not be used for support decisions.

Regional Weather Roundup (RWR)

Issued by National Weather Service (NWS)

                            
000
ASUS43 KDMX 200606
RWRIA 

WEATHER ROUNDUP FOR IOWA
NATIONAL WEATHER SERVICE DES MOINES IA
1200 AM CST WED FEB 20 2019

NOTE: "FAIR" INDICATES FEW OR NO CLOUDS BELOW 12,000 FEET WITH NO
SIGNIFICANT WEATHER AND/OR OBSTRUCTIONS TO VISIBILITY.

* - THESE STATIONS ARE NOT NWS STATIONS...THUS NOT UNDER NWS
QUALITY CONTROL.  THEY ALSO DO NOT REPORT WEATHER SUCH 
AS PRECIPITATION OR FOG.  

IAZ001>003-012>014-020>022-031>034-043>046-200700-
   NORTHWEST IOWA
  
CITY           SKY/WX    TMP DP  RH WIND       PRES   REMARKS
CARROLL *      LGT SNOW  19  21 100 E18       30.00F WCI   4          
CHEROKEE *     LGT SNOW  17  16  93 E16       30.01F WCI   2          
DENISON *      LGT SNOW  19  18  93 E14G21    29.98F WCI   6          
LE MARS *      SNOW      18  18 100 SE12      30.01F VSB 1/2 WCI   5  
ORANGE CITY *  LGT SNOW  18  16  93 E10G17    29.99F VSB 3/4 WCI   6  
SHELDON *      LGT SNOW  16  16 100 E21       29.98F VSB 3/4 WCI  -2  
SIOUX CITY     LGT SNOW  17  15  92 E8        30.00F VSB 3/4 WCI   7  
6HR MIN TEMP:  16; 6HR MAX TEMP:  17; 6HR PCP:  0.21;                

SPENCER        LGT SNOW  17  13  84 E16       30.04F VSB 3/4 WCI   2  
6HR MIN TEMP:  14; 6HR MAX TEMP:  17; 6HR PCP:  0.01;                

STORM LAKE *   LGT SNOW  16  16 100 E17       29.99F WCI   0          
$$
 
IAZ055>058-069>071-079>083-090>094-200700-
   SOUTHWEST IOWA
  
CITY           SKY/WX    TMP DP  RH WIND       PRES   REMARKS
ATLANTIC *     MIX PCPN  21  23 100 E16G22    29.96F VSB 1/2 WCI   7  
AUDUBON *      LGT SNOW  19  16  86 E8        29.97F VSB 1   WCI   9  
CLARINDA *     SNOW      25  23  93 E13G22    29.95F VSB 1/4 WCI  13  
COUNCIL BLFS * SNOW      21  21 100 E18       29.89F VSB 1/2 WCI   6  
CRESTON *      LGT SNOW  25  25 100 E20       29.99F WCI  11          
HARLAN  *      SNOW      21  21 100 E16G24    29.95F VSB 1/2 WCI   7  
LAMONI         LGT SNOW  27  23  85 E8        30.02F FOG     WCI  19  
6HR MIN TEMP:  24; 6HR MAX TEMP:  28; 6HR PCP:  0.01;                

RED OAK *      LGT SNOW  25  25 100 E17G24    29.93F WCI  11          
SHENANDOAH *   LGT SNOW  25  25 100 E21G31    29.91F VSB 1   WCI  10  
$$
 
IAZ047>049-059>061-072>074-084-200700-
   CENTRAL IOWA
  
CITY           SKY/WX    TMP DP  RH WIND       PRES   REMARKS
AMES           LGT SNOW  22  20  92 E12       30.07F FOG     WCI  10  
6HR MIN TEMP:  17; 6HR MAX TEMP:  22; 6HR PCP:  0.04;                

ANKENY *       LGT SNOW  25  23  93 E9        30.08F WCI  15          
BOONE *        LGT SNOW  21  21 100 E16       30.05F WCI   7          
CHARITON *       N/A     27  25  93 E15       30.06R WCI  15          
DES MOINES     LGT SNOW  24  21  88 E9        30.06F FOG     WCI  14  
6HR MIN TEMP:  19; 6HR MAX TEMP:  24; 6HR PCP:  0.02;                

GRINNELL*      LGT SNOW  25  23  92 E21       30.07F WCI  10          
KNOXVILLE *    CLOUDY    25  25 100 SE12      30.06S WCI  14          
MARSHALLTOWN   LGT SNOW  22  21  96 E16       30.09F FOG     WCI   8  
6HR MIN TEMP:  16; 6HR MAX TEMP:  22; 6HR PCP: TRACE;                

NEWTON *       CLOUDY    25  25 100 E18       30.06F WCI  11          
PELLA *        FLURRIES  26  22  87 E14G22    30.07F WCI  14          
PERRY *        LGT SNOW  21  21  98 E13       30.04F WCI   9          
$$
 
IAZ004>006-015-016-023>025-035-036-200700-
   NORTH CENTRAL IOWA
  
CITY           SKY/WX    TMP DP  RH WIND       PRES   REMARKS
ALGONA *       LGT SNOW  18  18 100 E15G22    30.07F VSB 3/4 WCI   3  
CLARION *      CLOUDY    19  18  93 E18G24    30.09F FOG     WCI   4  
ESTHERVILLE    LGT SNOW  15  12  88 E14       30.06F VSB 3/4 WCI   0  
6HR MIN TEMP:  10; 6HR MAX TEMP:  15; 6HR PCP:  0.01;                

FORT DODGE *   LGT SNOW  18  16  92 E18       30.07F FOG     WCI   2  
MASON CITY     LGT SNOW  18  16  92 E14       30.14F VSB 3/4 WCI   4  
6HR MIN TEMP:  15; 6HR MAX TEMP:  18; 6HR PCP:  0.01;                

FOREST CITY *  LGT SNOW  19  18  93 E10       30.11F VSB 3/4 WCI   8  
IOWA FALLS *   LGT SNOW  22  19  91 E14G22    30.12F WCI   9          
$$

IAZ007>011-017>019-026>030-037>042-050>054-066-200700-
   NORTHEAST IOWA
  
CITY           SKY/WX    TMP DP  RH WIND       PRES   REMARKS
CEDAR RAPIDS   LGT SNOW  24  23  96 E18       30.12F FOG     WCI  10  
6HR MIN TEMP:  20; 6HR MAX TEMP:  24; 6HR PCP: TRACE;                

CHARLES CITY * LGT SNOW  19  18  93 E14       30.15F VSB 3/4 WCI   6  
CLINTON *      LGT SNOW  25  23  92 E13       30.21F FOG     WCI  14  
DECORAH *      LGT SNOW  19  18  93 E12       30.17F WCI   7          
DUBUQUE        LGT SNOW  22  18  85 E12       30.20F FOG     WCI  10  
6HR MIN TEMP:  21; 6HR MAX TEMP:  23; 6HR PCP:  0.03;                

OELWEIN *      CLOUDY    21  21 100 E16       30.15F FOG     WCI   7  
WATERLOO       LGT SNOW  22  20  92 E12       30.15F FOG     WCI  10  
6HR MIN TEMP:  19; 6HR MAX TEMP:  22; 6HR PCP:  0.09;                

$$
 
IAZ064-065-067-068-078-200700-
   EAST CENTRAL IOWA
  
CITY           SKY/WX    TMP DP  RH WIND       PRES   REMARKS
DAVENPORT      LGT SNOW  26  23  88 E18       30.20F FOG     WCI  13  
6HR MIN TEMP:  24; 6HR MAX TEMP:  26; 6HR PCP:  0.01;                

IOWA CITY      LGT SNOW  26  23  88 E17G29    30.14F FOG     WCI  13  
6HR MIN TEMP:  24; 6HR MAX TEMP:  26; 6HR PCP: TRACE;                

MT. PLEASANT * CLOUDY    30  28  93 E20       30.12F WCI  18          
MUSCATINE *    CLOUDY    28  25  86 E16       30.15F WCI  17          
QUAD CITIES    LGT SNOW  29  26  89 E15       30.19F FOG     WCI  18  
6HR MIN TEMP:  27; 6HR MAX TEMP:  28; 6HR PCP:  0.01;                

$$
 
IAZ062-063-075>077-085>089-095>099-200700-
   SOUTHEAST IOWA
  
CITY           SKY/WX    TMP DP  RH WIND       PRES   REMARKS
BURLINGTON     CLOUDY    30  24  78 E17G28    30.11F WCI  18          
6HR MIN TEMP:  29; 6HR MAX TEMP:  31; 6HR PCP: TRACE;                

FAIRFIELD *    CLOUDY    28  25  86 E18G29    30.09F WCI  16          
FORT MADISON * CLOUDY    30  27  86 E16       30.12F WCI  19          
KEOKUK *       CLOUDY    30  27  86 E18       30.08F WCI  18          
OSKALOOSA *    CLOUDY    26  23  89 E16G22    30.08F WCI  13          
OTTUMWA        CLOUDY    27  23  85 E21G26    30.08F WCI  13          
6HR MIN TEMP:  23; 6HR MAX TEMP:  27; 6HR PCP: TRACE;                

WASHINGTON *   CLOUDY    27  27 100 E22       30.11F WCI  12          
$$

ABBREVIATIONS USED IN REMARKS
   TC - TEMPERATURES IN CELSIUS
  WCI - WIND CHILL INDEX
   HX - HEAT INDEX
  VSB - VISIBILITY  
$$